#timestamp,LO_Frequency,Hit,StdDev 
1548007215.8,286047000.7,N
1548007235.6,286047000.5,N
1548007255.5,286046998.1,N
1548007275.3,286047000.6,N
1548007295.1,286047000.9,N
1548007315.9,286047000.7,N
1548007335.7,286046998.6,N
1548007355.6,286046998.6,N
1548007375.4,286046998.9,N
1548007395.2,286046998.9,N
1548007415.1,286046998.2,N
1548007416.0,286046998.2,N
1548007435.8,286046998.7,N
1548007455.6,286047001.0,N
1548007475.5,286046998.5,N
1548007495.3,286047001.1,N
1548007515.2,286046999.2,N
1548007535.9,286046998.1,N
1548007555.7,286046999.3,N
1548007575.6,286046996.5,N
1548007595.4,286046996.9,N
1548007615.2,286046996.5,N
1548007635.1,286046999.6,N
1548007636.0,286046999.6,N
1548007655.8,286046999.1,N
1548007675.7,286046999.6,N
1548007695.5,286046996.5,N
1548007715.3,286046999.0,N
1548007735.2,286046996.5,N
1548007755.9,286046999.5,N
1548007775.7,286046999.3,N
1548007795.6,286046999.5,N
1548007815.4,286046999.1,N
1548007835.3,286046999.0,N
1548007855.1,286046998.3,N
1548007856.0,286046998.3,N
1548007875.8,286046998.4,N
1548007895.7,286046998.3,N
1548007915.5,286046998.1,N
1548007935.3,286047000.3,N
1548007955.2,286046999.8,N
1548007975.0,286047001.2,N
1548007975.9,286047001.2,N
1548007995.8,286046998.1,N
1548008015.6,286047000.9,N
1548008035.4,286047002.1,N
1548008055.3,286047001.4,N
1548008075.1,286047003.9,N
1548008095.8,286047006.0,Y
1548008115.7,286047005.9,P
1548008135.5,286047005.6,N
1548008155.4,286047003.2,N
1548008175.2,286047003.1,N
1548008195.0,286047003.4,N
1548008195.9,286047003.4,N
1548008215.8,286047003.2,N
1548008235.6,286047004.1,N
1548008255.4,286047003.8,N
1548008275.3,286047005.9,Y
1548008295.1,286047000.6,P
1548008315.9,286046999.9,N
1548008335.7,286047000.6,N
1548008355.5,286046998.7,N
1548008375.4,286046999.5,N
1548008395.2,286047000.5,N
1548008415.1,286046998.7,N
1548008416.0,286046998.7,N
1548008435.8,286046999.3,N
1548008455.6,286046996.6,N
1548008475.5,286046999.4,N
1548008495.3,286046996.5,N
1548008515.1,286046996.7,N
1548008535.9,286046999.5,N
1548008555.7,286046999.4,N
1548008575.6,286046995.7,N
1548008595.4,286046997.5,N
1548008615.2,286046995.0,N
1548008635.1,286046997.7,N
1548008636.0,286046997.7,N
1548008655.8,286046997.1,N
1548008675.6,286046998.0,N
1548008695.5,286046995.5,N
1548008715.3,286046997.5,N
1548008735.2,286046995.2,N
1548008755.9,286046995.9,N
1548008775.7,286046995.5,N
1548008795.6,286046995.4,N
1548008815.4,286046996.1,N
1548008835.2,286046995.4,N
1548008855.1,286046995.7,N
1548008856.0,286046995.7,N
1548008875.8,286046995.8,N
1548008895.7,286046993.3,Y
1548008915.5,286046999.6,P
1548008935.3,286046998.2,N
1548008955.2,286046999.6,N
1548008975.0,286046999.3,N
1548008975.9,286046999.3,N
1548008995.7,286046999.1,N
1548009015.6,286046999.0,N
1548009035.4,286046998.9,N
1548009055.3,286046999.4,N
1548009075.1,286046999.0,N
1548009076.0,286046999.0,N
1548009095.8,286046999.4,N
1548009115.7,286047000.1,N
1548009135.5,286047000.4,N
1548009155.3,286046999.9,N
1548009175.2,286046999.9,N
1548009195.0,286047002.4,Y
1548009195.9,286047002.4,P
1548009215.8,286047002.1,N
1548009235.6,286047002.6,N
1548009255.4,286047001.5,N
1548009275.3,286047002.5,N
1548009295.1,286047000.5,N
1548009315.8,286047002.6,N
1548009335.7,286047002.2,N
1548009355.5,286046999.8,N
1548009375.4,286046999.9,N
1548009395.2,286047001.0,N
1548009415.0,286046999.0,N
1548009415.9,286046999.0,N
1548009435.8,286046999.3,N
1548009455.6,286046999.1,N
1548009475.4,286046999.6,N
1548009495.3,286046999.0,N
1548009515.1,286046998.7,N
1548009535.9,286046998.7,N
1548009555.7,286046998.7,N
1548009575.5,286046998.6,N
1548009595.4,286046998.6,N
1548009615.2,286046999.0,N
1548009635.0,286047002.5,N
1548009635.9,286047002.5,N
1548009655.8,286047000.0,N
1548009675.6,286047000.6,N
1548009695.5,286047000.2,N
1548009715.3,286047002.5,N
1548009735.1,286047002.5,N
1548009755.9,286047002.2,N
1548009775.7,286046999.8,N
1548009795.5,286047002.5,N
1548009815.4,286047002.8,N
1548009835.2,286047002.8,N
1548009855.0,286047002.3,N
1548009856.0,286047002.3,N
1548009875.8,286046999.7,N
1548009895.6,286047002.4,N
1548009915.5,286047002.2,N
1548009935.3,286047002.5,N
1548009955.1,286047001.9,N
1548009975.9,286047001.8,N
1548009995.7,286047001.4,N
1548010015.6,286047004.3,N
1548010035.4,286047002.1,N
1548010055.2,286047002.7,N
1548010075.1,286047000.2,N
1548010076.0,286047000.2,N
1548010095.8,286046999.7,N
1548010115.6,286047001.3,N
1548010135.5,286047001.4,N
1548010155.3,286047002.4,N
1548010175.2,286047003.7,Y
1548010195.9,286047002.2,P
1548010215.7,286047001.4,P
1548010235.6,286047004.2,P
1548010255.4,286047001.6,N
1548010275.2,286047001.8,N
1548010295.1,286047001.7,N
1548010296.0,286047001.7,N
1548010315.8,286047003.9,Y
1548010335.7,286047001.6,P
1548010355.5,286047001.8,P
1548010375.3,286047004.0,P
1548010395.2,286047001.4,N
1548010415.0,286047003.9,Y
1548010415.9,286047003.9,P
1548010435.8,286047000.6,N
1548010455.6,286047001.2,N
1548010475.4,286046999.7,N
1548010495.3,286047000.9,N
1548010515.1,286046998.5,N
1548010535.8,286046998.9,N
1548010555.7,286047000.9,N
1548010575.5,286046998.6,N
1548010595.4,286046999.0,N
1548010615.2,286046999.3,N
1548010635.0,286046997.0,N
1548010635.9,286046997.0,N
1548010655.8,286046997.9,N
1548010675.6,286046995.7,N
1548010695.4,286046995.1,N
1548010715.3,286046996.3,N
1548010735.1,286046995.5,N
1548010755.9,286046997.0,N
1548010775.7,286046996.6,N
1548010795.5,286046999.0,N
